Back to catalog

STARLINK-35439

AliveCommunicationsVLEO
NORAD 66431·PAYLOAD·🇺🇸 United States

Launched Nov 11, 2025 from Cape Canaveral Space Force Station

Loading…

Next Passes (next 24 hours)

TLE

FreshSource: CelesTrak SupGP

Epoch: Sep 14, 2026, 21:36 UTC

1 66431C 25259K   26257.90048611  .00010688  00000+0  38715-3 0  2570
2 66431  43.0005 285.5626 0001437 266.8188   4.8706 15.27570686    15

Track STARLINK-35439 in real time with AllMySat

Download on the App Store